N6CTG Weather Reports


Display with metric or nautical units.
time (UTC)temp
F
wind
direction
speed
MPH
gust
MPH
rain 1hr
in
rain 24hr
in
rain mn
in
humidity
%
barometer
mb
20260902161804 73 144 0.0 3.0 0.00 0.00 0.00 51 1013.7
20260902160904 71 210 0.0 1.0 0.00 0.00 0.00 56 1013.7
20260902160005 70 219 0.0 1.0 0.00 0.00 0.00 56 1013.9
20260902155404 69 232 0.0 1.0 0.00 0.00 0.00 55 1013.8
20260902154525 68 0 0.0 0.0 0.00 0.00 0.00 53 1013.7
20260902153625 67 0 0.0 0.0 0.00 0.00 0.00 51 1013.7
20260902152704 66 0 0.0 0.0 0.00 0.00 0.00 52 1013.5
20260902151804 64 287 0.0 1.0 0.00 0.00 0.00 56 1013.6
20260902150904 63 0 0.0 0.0 0.00 0.00 0.00 65 1013.6
20260902150004 61 0 0.0 0.0 0.00 0.00 0.00 68 1013.7
20260902145403 61 0 0.0 0.0 0.00 0.00 0.00 70 1013.7
20260902144504 60 287 0.0 1.0 0.00 0.00 0.00 71 1013.6
20260902143604 61 0 0.0 0.0 0.00 0.00 0.00 70 1013.5
20260902142705 60 0 0.0 0.0 0.00 0.00 0.00 74 1013.6
20260902141804 58 0 0.0 0.0 0.00 0.00 0.00 76 1013.4
20260902140925 51 0 0.0 0.0 0.00 0.00 0.00 80 1013.3
20260902140004 51 0 0.0 0.0 0.00 0.00 0.00 80 1013.3
20260902135404 51 0 0.0 0.0 0.00 0.00 0.00 80 1013.2
20260902134504 51 0 0.0 0.0 0.00 0.00 0.00 80 1013.2
20260902133604 51 0 0.0 0.0 0.00 0.00 0.00 80 1013.1
20260902132725 51 0 0.0 0.0 0.00 0.00 0.00 80 1012.9
20260902131804 51 0 0.0 0.0 0.00 0.00 0.00 80 1012.8
20260902130904 51 0 0.0 0.0 0.00 0.00 0.00 80 1012.8
20260902130004 51 0 0.0 0.0 0.00 0.00 0.00 80 1012.6
20260902125404 51 0 0.0 0.0 0.00 0.00 0.00 80 1012.6
20260902124504 51 0 0.0 0.0 0.00 0.00 0.00 80 1012.6
20260902123604 51 0 0.0 0.0 0.00 0.00 0.00 80 1012.7
20260902122704 51 0 0.0 0.0 0.00 0.00 0.00 80 1012.7
20260902121804 51 0 0.0 0.0 0.00 0.00 0.00 80 1012.7
20260902120904 51 0 0.0 0.0 0.00 0.00 0.00 80 1012.7
20260902120004 51 0 0.0 0.0 0.00 0.00 0.00 80 1012.7
20260902115404 51 0 0.0 0.0 0.00 0.00 0.00 80 1012.7
20260902114525 51 0 0.0 0.0 0.00 0.00 0.00 80 1012.7
20260902113604 51 0 0.0 0.0 0.00 0.00 0.00 80 1012.8
20260902112725 53 0 0.0 0.0 0.00 0.00 0.00 81 1012.8
20260902111804 53 0 0.0 0.0 0.00 0.00 0.00 81 1012.8
20260902110904 54 0 0.0 0.0 0.00 0.00 0.00 81 1012.8
20260902110007 54 0 0.0 0.0 0.00 0.00 0.00 81 1012.8
20260902105404 54 0 0.0 0.0 0.00 0.00 0.00 81 1012.9
20260902104504 54 0 0.0 0.0 0.00 0.00 0.00 81 1012.9
20260902103604 54 0 0.0 0.0 0.00 0.00 0.00 81 1013.1
20260902102704 54 0 0.0 0.0 0.00 0.00 0.00 80 1013.1
20260902101804 54 0 0.0 0.0 0.00 0.00 0.00 80 1013.1
20260902100904 55 0 0.0 0.0 0.00 0.00 0.00 80 1013.2
20260902100004 55 0 0.0 0.0 0.00 0.00 0.00 79 1013.2
20260902095404 55 0 0.0 0.0 0.00 0.00 0.00 79 1013.3
20260902094504 56 0 0.0 0.0 0.00 0.00 0.00 79 1013.2
20260902093625 56 0 0.0 0.0 0.00 0.00 0.00 80 1013.3
20260902092704 56 0 0.0 0.0 0.00 0.00 0.00 79 1013.2
20260902091804 56 0 0.0 0.0 0.00 0.00 0.00 79 1013.3
20260902090925 56 0 0.0 0.0 0.00 0.00 0.00 79 1013.3
20260902090004 57 0 0.0 0.0 0.00 0.00 0.00 78 1013.4
20260902085425 57 0 0.0 0.0 0.00 0.00 0.00 78 1013.4
20260902084504 57 0 0.0 0.0 0.00 0.00 0.00 77 1013.5
20260902083604 57 0 0.0 0.0 0.00 0.00 0.00 77 1013.5
20260902082704 58 0 0.0 0.0 0.00 0.00 0.00 78 1013.4
20260902081804 58 0 0.0 0.0 0.00 0.00 0.00 78 1013.4
20260902080904 58 0 0.0 0.0 0.00 0.00 0.00 78 1013.4
20260902080004 58 0 0.0 0.0 0.00 0.00 0.00 77 1013.4
20260902075404 58 0 0.0 0.0 0.00 0.00 0.00 77 1013.5
20260902074504 58 0 0.0 0.0 0.00 0.00 0.00 77 1013.5
20260902073604 58 0 0.0 0.0 0.00 0.00 0.00 77 1013.4
20260902072704 59 0 0.0 0.0 0.00 0.00 0.00 77 1013.3
20260902071804 59 0 0.0 0.0 0.00 0.00 0.00 77 1013.3
20260902070925 59 0 0.0 0.0 0.00 0.00 0.00 78 1013.2
20260902070005 59 0 0.0 0.0 0.00 0.00 0.00 78 1013.2
20260902065404 59 0 0.0 0.0 0.00 0.00 0.00 78 1013.1
20260902064504 60 0 0.0 0.0 0.00 0.00 0.00 78 1013.1
20260902063625 60 0 0.0 0.0 0.00 0.00 0.00 78 1013.1
20260902062704 60 0 0.0 0.0 0.00 0.00 0.00 78 1013.0
20260902061804 60 0 0.0 0.0 0.00 0.00 0.00 77 1012.9
20260902060904 61 0 0.0 0.0 0.00 0.00 0.00 77 1012.8
20260902060004 61 0 0.0 0.0 0.00 0.00 0.00 76 1012.8
20260902055425 61 0 0.0 0.0 0.00 0.00 0.00 75 1012.7
20260902054504 62 0 0.0 0.0 0.00 0.00 0.00 75 1012.7
20260902053604 62 0 0.0 0.0 0.00 0.00 0.00 75 1012.8
20260902052704 62 0 0.0 0.0 0.00 0.00 0.00 75 1012.7
20260902051825 63 0 0.0 0.0 0.00 0.00 0.00 75 1012.7
20260902050925 63 0 0.0 0.0 0.00 0.00 0.00 75 1012.7
20260902050006 63 0 0.0 0.0 0.00 0.00 0.00 74 1012.7
20260902045404 64 0 0.0 0.0 0.00 0.00 0.00 74 1012.6
20260902044504 64 0 0.0 0.0 0.00 0.00 0.00 73 1012.6
20260902043604 64 0 0.0 0.0 0.00 0.00 0.00 73 1012.5
20260902042704 65 0 0.0 0.0 0.00 0.00 0.00 72 1012.3
20260902041804 65 0 0.0 0.0 0.00 0.00 0.00 72 1012.1
20260902040904 66 0 0.0 0.0 0.00 0.00 0.00 70 1012.1
20260902040025 66 0 0.0 0.0 0.00 0.00 0.00 70 1011.9
20260902035404 67 0 0.0 0.0 0.00 0.00 0.00 69 1011.8
20260902034525 67 0 0.0 0.0 0.00 0.00 0.00 68 1011.7
20260902033604 68 0 0.0 0.0 0.00 0.00 0.00 68 1011.6
20260902032704 68 0 0.0 0.0 0.00 0.00 0.00 68 1011.5
20260902031804 69 276 0.0 2.0 0.00 0.00 0.00 67 1011.4
20260902030904 70 276 0.0 1.0 0.00 0.00 0.00 66 1011.4
20260902030004 70 242 1.0 2.0 0.00 0.00 0.00 65 1011.3
20260902025425 71 240 1.0 3.0 0.00 0.00 0.00 64 1011.3
20260902024504 72 242 1.0 3.0 0.00 0.00 0.00 61 1011.1
20260902023604 72 245 0.0 2.0 0.00 0.00 0.00 58 1010.9
20260902022725 73 236 1.0 3.0 0.00 0.00 0.00 55 1010.9
20260902021804 74 239 2.0 5.0 0.00 0.00 0.00 51 1010.9
20260902020904 75 245 2.0 5.0 0.00 0.00 0.00 50 1010.9
20260902020004 76 249 2.0 5.0 0.00 0.00 0.00 49 1010.9
20260902015425 78 256 1.0 5.0 0.00 0.00 0.00 46 1010.8
20260902014504 78 252 2.0 5.0 0.00 0.00 0.00 45 1010.8
20260902013625 78 254 3.0 7.0 0.00 0.00 0.00 44 1010.7
20260902012725 79 252 3.0 7.0 0.00 0.00 0.00 42 1010.6
20260902011804 80 251 3.0 6.0 0.00 0.00 0.00 40 1010.6
20260902010925 80 257 3.0 7.0 0.00 0.00 0.00 41 1010.8
20260902010025 80 263 4.0 7.0 0.00 0.00 0.00 42 1010.8
20260902005404 80 258 4.0 8.0 0.00 0.00 0.00 41 1010.8
20260902004504 82 256 3.0 8.0 0.00 0.00 0.00 39 1010.8
20260902003604 82 255 3.0 8.0 0.00 0.00 0.00 37 1010.7
20260902002704 82 252 4.0 8.0 0.00 0.00 0.00 37 1010.8
20260902001804 83 250 4.0 8.0 0.00 0.00 0.00 36 1010.7
20260902000904 83 251 4.0 8.0 0.00 0.00 0.00 35 1010.7
20260902000025 84 237 5.0 8.0 0.00 0.00 0.00 34 1010.8
20260901235404 83 250 4.0 9.0 0.00 0.00 0.00 33 1010.8
20260901234504 84 254 4.0 9.0 0.00 0.00 0.00 34 1010.7
20260901233604 84 245 5.0 11.0 0.00 0.00 0.00 34 1010.8
20260901232704 84 257 4.0 11.0 0.00 0.00 0.00 35 1010.8
20260901231804 84 253 5.0 11.0 0.00 0.00 0.00 34 1010.9
20260901230904 84 264 5.0 11.0 0.00 0.00 0.00 32 1010.9
20260901230004 85 247 5.0 9.0 0.00 0.00 0.00 32 1010.9
20260901225404 85 243 6.0 12.0 0.00 0.00 0.00 34 1010.9
20260901224504 86 239 7.0 12.0 0.00 0.00 0.00 33 1011.0
20260901223604 86 238 6.0 14.0 0.00 0.00 0.00 32 1011.0
20260901222704 86 244 6.0 11.0 0.00 0.00 0.00 31 1010.8
20260901221804 87 240 6.0 11.0 0.00 0.00 0.00 30 1010.8
20260901220925 87 235 6.0 12.0 0.00 0.00 0.00 32 1010.8
20260901220004 87 241 5.0 11.0 0.00 0.00 0.00 33 1010.9
20260901215404 88 246 5.0 10.0 0.00 0.00 0.00 34 1011.0
20260901214525 88 243 6.0 11.0 0.00 0.00 0.00 34 1011.0
20260901213604 88 240 5.0 10.0 0.00 0.00 0.00 34 1011.0
20260901212704 88 244 6.0 12.0 0.00 0.00 0.00 35 1011.1
20260901211804 88 243 5.0 10.0 0.00 0.00 0.00 34 1011.2
20260901210904 89 239 4.0 11.0 0.00 0.00 0.00 34 1011.2
20260901210004 88 244 5.0 11.0 0.00 0.00 0.00 33 1011.2
20260901205404 88 242 4.0 10.0 0.00 0.00 0.00 33 1011.3
20260901204504 88 238 4.0 10.0 0.00 0.00 0.00 34 1011.3
20260901203604 88 237 3.0 10.0 0.00 0.00 0.00 34 1011.3
20260901202704 88 232 4.0 9.0 0.00 0.00 0.00 34 1011.3
20260901201804 88 248 3.0 7.0 0.00 0.00 0.00 35 1011.5
20260901200904 87 243 3.0 11.0 0.00 0.00 0.00 36 1011.6
20260901200004 87 249 5.0 12.0 0.00 0.00 0.00 37 1011.8
20260901195404 87 238 4.0 10.0 0.00 0.00 0.00 39 1011.8
20260901194504 87 241 4.0 8.0 0.00 0.00 0.00 39 1011.8
20260901193604 87 284 1.0 6.0 0.00 0.00 0.00 40 1011.8
20260901192704 86 259 2.0 9.0 0.00 0.00 0.00 41 1012.0
20260901191804 86 248 4.0 9.0 0.00 0.00 0.00 40 1012.0
20260901190904 87 241 1.0 8.0 0.00 0.00 0.00 40 1012.1
20260901190004 86 246 2.0 7.0 0.00 0.00 0.00 41 1012.2
20260901185404 86 217 2.0 7.0 0.00 0.00 0.00 42 1012.2
20260901184504 84 222 3.0 8.0 0.00 0.00 0.00 38 1012.3
20260901183604 84 224 3.0 7.0 0.00 0.00 0.00 39 1012.4
20260901182704 84 248 1.0 7.0 0.00 0.00 0.00 39 1012.5
20260901181804 84 220 2.0 8.0 0.00 0.00 0.00 41 1012.4
20260901180925 83 263 2.0 6.0 0.00 0.00 0.00 41 1012.5
20260901180025 83 260 1.0 4.0 0.00 0.00 0.00 41 1012.5
20260901175425 82 268 2.0 4.0 0.00 0.00 0.00 40 1012.5
20260901174525 82 261 1.0 3.0 0.00 0.00 0.00 40 1012.6
20260901173604 81 204 0.0 2.0 0.00 0.00 0.00 41 1012.5
20260901172704 80 249 1.0 3.0 0.00 0.00 0.00 44 1012.6
20260901171825 78 230 2.0 5.0 0.00 0.00 0.00 47 1012.6
20260901170904 78 232 2.0 6.0 0.00 0.00 0.00 49 1012.6
20260901170004 78 240 1.0 5.0 0.00 0.00 0.00 49 1012.5
20260901165404 77 237 2.0 5.0 0.00 0.00 0.00 48 1012.6
20260901164504 77 232 2.0 4.0 0.00 0.00 0.00 49 1012.5
20260901163625 76 232 2.0 4.0 0.00 0.00 0.00 51 1012.4
20260901162704 75 222 1.0 4.0 0.00 0.00 0.00 51 1012.3